Miscellaneous Local Product
Issued by NWS Hastings, NE

Home | Current Version | Previous Version | Graphics & Text | Print | Product List | Glossary On
Versions: 1 2 3 4 5 6 7 8 9 10 11 12 13 14 15 16 17 18 19 20 21 22 23 24 25 26 27 28 29 30 31 32 33 34 35 36 37 38 39 40 41 42 43 44 45 46 47 48 49 50
000
AXUS43 KGID 290802
MISGRI

GID CWA HOURLY WEATHER ROUNDUP
NATIONAL WEATHER SERVICE HASTINGS NE
300 AM CDT SUN MAR 29 2015

NOTE: "FAIR" INDICATES FEW OR NO CLOUDS BELOW 12,000 FEET WITH NO
SIGNIFICANT WEATHER AND/OR OBSTRUCTIONS TO VISIBILITY.

...SOUTH CENTRAL NEBRASKA...

CITY           SKY/WX    TMP DP  RH WIND       PRES   REMARKS
GRAND ISLAND   PTCLDY    50  39  66 S23G32    29.77F
HASTINGS       PTCLDY    50  39  66 SW17G23   29.82R
KEARNEY        PTCLDY    50  37  62 S17       29.78F
ORD            PTCLDY    43  34  70 NW3       29.84R
YORK           CLOUDY    45  37  76 S17       29.81F
AURORA         MOCLDY    46  37  73 S17G23    29.79F
LEXINGTON      CLOUDY    60  40  48 NW8G23    29.81R
HOLDREGE       MOCLDY    49  38  65 S9        29.81F
HEBRON         PTCLDY    46  37  72 S8        29.84F

...NEBRASKA PANHANDLE...

CITY           SKY/WX    TMP DP  RH WIND       PRES   REMARKS
CHADRON        CLEAR     50  18  28 W14       30.00R
ALLIANCE       CLEAR     49  20  31 NW13      29.99R
SCOTTSBLUFF    CLEAR     49  21  33 W10       30.04R
SIDNEY         CLEAR     51  25  36 N21G29    30.02R

...WESTERN AND NORTH CENTRAL NEBRASKA...

CITY           SKY/WX    TMP DP  RH WIND       PRES   REMARKS
VALENTINE      CLEAR     49  36  61 W5        29.87R
AINSWORTH      CLEAR     54  35  49 NW18      29.86R
ONEILL         CLEAR     50  38  63 SW7       29.82F
BROKEN BOW     MOCLDY    58  38  47 N25G38    29.84R
IMPERIAL         N/A     62  34  35 N21G26    29.94R
NORTH PLATTE   MOCLDY    59  29  31 N16G28    29.91R
MCCOOK         LGT RAIN  69  35  28 NW12G23   29.84F

...EASTERN NEBRASKA...

CITY           SKY/WX    TMP DP  RH WIND       PRES   REMARKS
NORFOLK        CLOUDY    45  35  68 SW10      29.86R
SO SIOUX CITY  CLOUDY    45  33  63 S14G20    29.84S
TEKAMAH        CLOUDY    45  32  60 S8G38     29.89R
COLUMBUS       CLOUDY    45  32  61 S17       29.81F
ALBION         MOCLDY    45  35  67 NW3       29.87R
OMAHA EPPLEY   MOCLDY    44  32  62 S20G28    29.86F
OFFUTT AFB     MOCLDY    42  32  66 SE13      29.86F
MILLARD        MOCLDY    44  32  64 SE18G25   29.86F
LINCOLN        MOCLDY    44  34  67 S18       29.84F
NEBRASKA CITY  PTCLDY    40  31  69 S21       29.87F WCI  31
BEATRICE       PTCLDY    43  35  72 S16       29.86F
FALLS CITY     CLEAR     40  32  73 S17       29.92F WCI  31

...NORTHERN KANSAS...

CITY           SKY/WX    TMP DP  RH WIND       PRES   REMARKS
GOODLAND       PTCLDY    57  30  35 NW9       29.90R
HILL CITY      CLEAR     62  44  51 NW17G29   29.86R
NORTON         PTSUNNY   59  37  44 SW10      29.86F
PHILLIPSBURG   CLEAR     59  45  58 NW13      29.87R
SMITH CENTER   CLEAR     45  37  76 E3        29.84S
BELOIT         CLEAR     48  39  71 SE8       29.82F
HAYS           CLEAR     57  39  51 S17G24    29.81F
RUSSELL        CLEAR     56  42  59 S23G29    29.79F
CONCORDIA      CLEAR     47  40  76 SE10      29.84F
SALINA         CLEAR     52  40  63 S15       29.85F
TOPEKA         CLEAR     41  33  73 SE10      29.97F



USA.gov is the U.S. government's official web portal to all federal, state and local government web resources and services.